UAE804 OEJN-OMDB

Flight info

Callsign UAE804
Flight time 2h 12m
Altitude 39000
Route EGREP2W/34C EGREP T532 KODIS Y214 RAPMA DCT KUVSO DCT KATIT DCT PEKEM M628 RIGIL G783 ASPED Q308 KIPOK Q568 IMPED
Aircraft A388/J-SADE2E3FGHIJ3J4J5M1RWXY/LB1D1

Departure

Time 2026-05-04 23:11
Airport King Abdulaziz International Airport (OEJN)

Arrival

Time 2026-05-05 01:23
Airport Dubai International Airport (OMDB)
Time Latitude Longitude Altitude Speed Heading
2026-05-04 22:44 21.67163 39.16980 35 ft 0 kts 155°
2026-05-04 22:53 21.67161 39.16981 35 ft 0 kts 155°
2026-05-04 22:56 21.67164 39.16980 35 ft 3 kts 155°
2026-05-04 22:56 21.67188 39.16968 35 ft 4 kts 155°
2026-05-04 22:57 21.67212 39.16955 34 ft 4 kts 155°
2026-05-04 22:57 21.67233 39.16947 34 ft 4 kts 191°
2026-05-04 22:57 21.67251 39.16961 33 ft 4 kts 242°
2026-05-04 22:57 21.67260 39.16981 35 ft 0 kts 243°
2026-05-04 23:02 21.67260 39.16979 34 ft 2 kts 243°
2026-05-04 23:02 21.67244 39.16946 35 ft 8 kts 243°
2026-05-04 23:02 21.67221 39.16880 35 ft 11 kts 261°
2026-05-04 23:03 21.67215 39.16837 35 ft 6 kts 269°
2026-05-04 23:03 21.67230 39.16791 35 ft 7 kts 317°
2026-05-04 23:03 21.67268 39.16780 35 ft 7 kts 354°
2026-05-04 23:03 21.67330 39.16776 35 ft 10 kts 354°
2026-05-04 23:04 21.67399 39.16754 35 ft 11 kts 340°
2026-05-04 23:04 21.67476 39.16724 35 ft 13 kts 340°
2026-05-04 23:04 21.67564 39.16689 35 ft 14 kts 339°
2026-05-04 23:04 21.67611 39.16670 35 ft 3 kts 339°
2026-05-04 23:05 21.67643 39.16656 35 ft 6 kts 328°
2026-05-04 23:05 21.67656 39.16629 35 ft 4 kts 267°
2026-05-04 23:05 21.67643 39.16594 35 ft 8 kts 245°
2026-05-04 23:05 21.67616 39.16530 35 ft 2 kts 249°
2026-05-04 23:06 21.67610 39.16502 35 ft 8 kts 255°
2026-05-04 23:06 21.67590 39.16431 35 ft 12 kts 253°
2026-05-04 23:06 21.67559 39.16338 35 ft 15 kts 247°
2026-05-04 23:06 21.67519 39.16231 35 ft 15 kts 248°
2026-05-04 23:07 21.67449 39.16171 35 ft 14 kts 167°
2026-05-04 23:07 21.67340 39.16207 36 ft 18 kts 159°
2026-05-04 23:07 21.67224 39.16253 36 ft 19 kts 160°
2026-05-04 23:07 21.67086 39.16306 36 ft 23 kts 160°
2026-05-04 23:08 21.66981 39.16347 37 ft 15 kts 160°
2026-05-04 23:08 21.66867 39.16391 37 ft 20 kts 160°
2026-05-04 23:08 21.66730 39.16444 37 ft 22 kts 160°
2026-05-04 23:08 21.66575 39.16505 37 ft 25 kts 160°
2026-05-04 23:09 21.66463 39.16548 36 ft 25 kts 160°
2026-05-04 23:09 21.66391 39.16576 36 ft 12 kts 160°
2026-05-04 23:09 21.66289 39.16616 36 ft 18 kts 160°
2026-05-04 23:09 21.66256 39.16628 36 ft 4 kts 160°
2026-05-04 23:10 21.66212 39.16645 36 ft 8 kts 172°
2026-05-04 23:10 21.66182 39.16622 36 ft 7 kts 239°
2026-05-04 23:10 21.66157 39.16559 36 ft 11 kts 250°
2026-05-04 23:10 21.66152 39.16484 35 ft 8 kts 319°
2026-05-04 23:11 21.66282 39.16429 36 ft 50 kts 341°
2026-05-04 23:11 21.66877 39.16192 42 ft 128 kts 340°
2026-05-04 23:11 21.67871 39.15798 156 ft 165 kts 340°
2026-05-04 23:11 21.68933 39.15349 767 ft 168 kts 338°
2026-05-04 23:12 21.70048 39.14897 1210 ft 174 kts 341°
2026-05-04 23:12 21.71244 39.14437 1498 ft 194 kts 342°
2026-05-04 23:12 21.72630 39.14244 1902 ft 213 kts
2026-05-04 23:12 21.74064 39.14861 2366 ft 238 kts 32°
2026-05-04 23:13 21.75382 39.16068 2843 ft 254 kts 37°
2026-05-04 23:13 21.76727 39.17359 3483 ft 262 kts 38°
2026-05-04 23:13 21.78110 39.18660 4143 ft 268 kts 38°
2026-05-04 23:13 21.79540 39.19995 4777 ft 276 kts 38°
2026-05-04 23:14 21.80994 39.21358 5552 ft 277 kts 38°
2026-05-04 23:14 21.82460 39.22736 6300 ft 281 kts 39°
2026-05-04 23:14 21.83937 39.24129 7003 ft 284 kts 39°
2026-05-04 23:14 21.85401 39.25510 7712 ft 287 kts 39°
2026-05-04 23:15 21.86910 39.26935 8436 ft 291 kts 39°
2026-05-04 23:15 21.88446 39.28384 9198 ft 295 kts 39°
2026-05-04 23:15 21.89993 39.29845 9956 ft 298 kts 39°
2026-05-04 23:15 21.91580 39.31343 10405 ft 313 kts 39°
2026-05-04 23:16 21.93276 39.32942 10616 ft 334 kts 39°
2026-05-04 23:16 21.95078 39.34642 10811 ft 353 kts 39°
2026-05-04 23:16 21.96945 39.36408 11344 ft 361 kts 40°
2026-05-04 23:16 21.98839 39.38201 11981 ft 365 kts 40°
2026-05-04 23:17 22.00757 39.40017 12638 ft 369 kts 40°
2026-05-04 23:17 22.02703 39.41860 13265 ft 374 kts 41°
2026-05-04 23:17 22.04673 39.43727 13879 ft 379 kts 41°
2026-05-04 23:17 22.06661 39.45610 14467 ft 383 kts 41°
2026-05-04 23:18 22.08671 39.47515 15080 ft 386 kts 41°
2026-05-04 23:18 22.10702 39.49440 15692 ft 391 kts 41°
2026-05-04 23:18 22.12751 39.51384 16251 ft 394 kts 41°
2026-05-04 23:18 22.14796 39.53325 16834 ft 398 kts 41°
2026-05-04 23:19 22.16885 39.55307 17410 ft 402 kts 41°
2026-05-04 23:19 22.19000 39.57315 17969 ft 406 kts 41°
2026-05-04 23:19 22.21127 39.59334 18577 ft 407 kts 41°
2026-05-04 23:19 22.23263 39.61365 19049 ft 411 kts 41°
2026-05-04 23:20 22.25416 39.63412 19528 ft 414 kts 41°
2026-05-04 23:20 22.27588 39.65478 19991 ft 418 kts 40°
2026-05-04 23:20 22.29782 39.67565 20474 ft 421 kts 40°
2026-05-04 23:20 22.31988 39.69664 20914 ft 426 kts 40°
2026-05-04 23:21 22.34226 39.71796 21327 ft 430 kts 40°
2026-05-04 23:21 22.36474 39.73937 21824 ft 432 kts 40°
2026-05-04 23:21 22.38740 39.76097 22285 ft 436 kts 40°
2026-05-04 23:21 22.41024 39.78274 22737 ft 439 kts 40°
2026-05-04 23:22 22.43315 39.80460 23183 ft 442 kts 40°
2026-05-04 23:22 22.45639 39.82679 23594 ft 446 kts 40°
2026-05-04 23:22 22.47976 39.84909 23924 ft 451 kts 39°
2026-05-04 23:22 22.50311 39.87136 24296 ft 453 kts 39°
2026-05-04 23:23 22.52681 39.89395 24573 ft 458 kts 39°
2026-05-04 23:23 22.55085 39.91688 24910 ft 463 kts 39°
2026-05-04 23:23 22.57508 39.94001 25249 ft 466 kts 39°
2026-05-04 23:23 22.59950 39.96333 25597 ft 470 kts 39°
2026-05-04 23:24 22.62412 39.98686 25980 ft 473 kts 39°
2026-05-04 23:24 22.64890 40.01056 26334 ft 477 kts 39°
2026-05-04 23:24 22.67391 40.03449 26710 ft 482 kts 39°
2026-05-04 23:24 22.69910 40.05860 27102 ft 486 kts 39°
2026-05-04 23:25 22.72449 40.08292 27433 ft 492 kts 39°
2026-05-04 23:25 22.75027 40.10761 27852 ft 496 kts 39°
2026-05-04 23:25 22.77622 40.13248 28270 ft 500 kts 39°
2026-05-04 23:25 22.80242 40.15762 28678 ft 505 kts 39°
2026-05-04 23:26 22.82888 40.18301 29112 ft 509 kts 39°
2026-05-04 23:26 22.85546 40.20853 29537 ft 513 kts 38°
2026-05-04 23:26 22.88233 40.23434 29950 ft 518 kts 38°
2026-05-04 23:26 22.90942 40.26038 30327 ft 523 kts 38°
2026-05-04 23:27 22.93680 40.28672 30697 ft 527 kts 38°
2026-05-04 23:27 22.96433 40.31322 31153 ft 530 kts 38°
2026-05-04 23:27 22.99201 40.33987 31534 ft 534 kts 38°
2026-05-04 23:27 23.01950 40.36636 31910 ft 537 kts 38°
2026-05-04 23:28 23.04752 40.39337 32292 ft 541 kts 38°
2026-05-04 23:28 23.07578 40.42063 32688 ft 544 kts 38°
2026-05-04 23:28 23.10418 40.44804 33018 ft 550 kts 38°
2026-05-04 23:28 23.13293 40.47580 33354 ft 554 kts 38°
2026-05-04 23:29 23.16173 40.50363 33876 ft 554 kts 38°
2026-05-04 23:29 23.19066 40.53162 34229 ft 558 kts 38°
2026-05-04 23:29 23.21980 40.55980 34553 ft 562 kts 38°
2026-05-04 23:29 23.24800 40.58857 34973 ft 564 kts 44°
2026-05-04 23:30 23.27295 40.62250 35332 ft 571 kts 55°
2026-05-04 23:30 23.29259 40.66026 35594 ft 578 kts 65°
2026-05-04 23:30 23.30700 40.70044 36065 ft 577 kts 70°
2026-05-04 23:30 23.32104 40.74127 36592 ft 575 kts 70°
2026-05-04 23:31 23.33521 40.78189 37103 ft 574 kts 70°
2026-05-04 23:31 23.34939 40.82251 37616 ft 573 kts 70°
2026-05-04 23:31 23.36356 40.86318 38106 ft 573 kts 70°
2026-05-04 23:31 23.37763 40.90370 38599 ft 572 kts 70°
2026-05-04 23:32 23.39167 40.94420 38973 ft 572 kts 70°
2026-05-04 23:32 23.40571 40.98477 39023 ft 570 kts 70°
2026-05-04 23:32 23.43342 41.06500 39018 ft 567 kts 70°
2026-05-04 23:33 23.46120 41.14560 39007 ft 568 kts 70°
2026-05-04 23:33 23.48890 41.22609 39021 ft 568 kts 70°
2026-05-04 23:34 23.51663 41.30681 39016 ft 568 kts 70°
2026-05-04 23:34 23.54428 41.38746 39008 ft 568 kts 70°
2026-05-04 23:35 23.57173 41.46769 39001 ft 569 kts 70°
2026-05-04 23:35 23.59931 41.54847 39004 ft 569 kts 70°
2026-05-04 23:36 23.62686 41.62931 39008 ft 568 kts 70°
2026-05-04 23:36 23.65435 41.71012 39027 ft 568 kts 70°
2026-05-04 23:37 23.68166 41.79115 38983 ft 569 kts 71°
2026-05-04 23:37 23.70751 41.87280 38996 ft 569 kts 72°
2026-05-04 23:38 23.73329 41.95458 38999 ft 569 kts 72°
2026-05-04 23:38 23.75968 42.03612 39004 ft 569 kts 70°
2026-05-04 23:39 23.78760 42.11671 39004 ft 569 kts 70°
2026-05-04 23:39 23.81545 42.19761 38996 ft 569 kts 70°
2026-05-04 23:40 23.84286 42.27798 39002 ft 567 kts 70°
2026-05-04 23:40 23.87032 42.35879 38999 ft 567 kts 70°
2026-05-04 23:41 23.89770 42.43951 38984 ft 567 kts 71°
2026-05-04 23:41 23.92510 42.52044 38987 ft 567 kts 71°
2026-05-04 23:42 23.95239 42.60120 38981 ft 567 kts 71°
2026-05-04 23:42 23.97965 42.68204 38994 ft 567 kts 71°
2026-05-04 23:43 24.00690 42.76302 38988 ft 567 kts 71°
2026-05-04 23:43 24.03174 42.84483 38974 ft 565 kts 81°
2026-05-04 23:44 24.03645 42.88726 38973 ft 560 kts 92°
2026-05-04 23:44 24.03446 42.92952 38975 ft 553 kts 104°
2026-05-04 23:44 24.01501 43.00974 38977 ft 545 kts 113°
2026-05-04 23:45 23.99339 43.08913 38986 ft 545 kts 112°
2026-05-04 23:45 23.97183 43.16868 38993 ft 546 kts 112°
2026-05-04 23:46 23.95031 43.24774 38988 ft 546 kts 112°
2026-05-04 23:46 23.92857 43.32731 38996 ft 546 kts 112°
2026-05-04 23:47 23.90681 43.40680 38994 ft 546 kts 112°
2026-05-04 23:47 23.88503 43.48621 38981 ft 545 kts 112°
2026-05-04 23:48 23.86316 43.56572 38972 ft 545 kts 112°
2026-05-04 23:48 23.84132 43.64498 38956 ft 544 kts 112°
2026-05-04 23:49 23.81950 43.72400 38956 ft 543 kts 112°
2026-05-04 23:49 23.79777 43.80251 38944 ft 543 kts 112°
2026-05-04 23:50 23.77736 43.88192 38935 ft 546 kts 106°
2026-05-04 23:50 23.76819 43.96472 38926 ft 552 kts 98°
2026-05-04 23:51 23.76217 44.04815 38914 ft 551 kts 98°
2026-05-04 23:51 23.75591 44.13155 38911 ft 551 kts 98°
2026-05-04 23:52 23.74962 44.21491 38919 ft 551 kts 98°
2026-05-04 23:52 23.74329 44.29835 38919 ft 551 kts 98°
2026-05-04 23:53 23.73693 44.38177 38915 ft 552 kts 98°
2026-05-04 23:53 23.73050 44.46529 38912 ft 552 kts 98°
2026-05-04 23:54 23.72409 44.54814 38926 ft 551 kts 98°
2026-05-04 23:54 23.71758 44.63168 38910 ft 551 kts 98°
2026-05-04 23:55 23.71105 44.71488 38916 ft 550 kts 98°
2026-05-04 23:56 23.70118 44.83957 38920 ft 549 kts 98°
2026-05-04 23:56 23.69456 44.92256 38904 ft 549 kts 98°
2026-05-04 23:57 23.68901 44.99166 38897 ft 549 kts 98°
2026-05-04 23:57 23.68229 45.07455 38909 ft 548 kts 98°
2026-05-04 23:58 23.67555 45.15734 38903 ft 548 kts 98°
2026-05-04 23:58 23.66878 45.23995 38894 ft 547 kts 98°
2026-05-04 23:59 23.66200 45.32218 38888 ft 547 kts 98°
2026-05-04 23:59 23.65514 45.40477 38883 ft 547 kts 98°
2026-05-05 00:00 23.64824 45.48743 38874 ft 547 kts 98°
2026-05-05 00:00 23.64128 45.57012 38872 ft 546 kts 98°
2026-05-05 00:01 23.63431 45.65249 38879 ft 545 kts 98°
2026-05-05 00:01 23.62729 45.73481 38871 ft 545 kts 98°
2026-05-05 00:02 23.62022 45.81714 38869 ft 544 kts 98°
2026-05-05 00:02 23.61314 45.89924 38866 ft 543 kts 98°
2026-05-05 00:03 23.60601 45.98127 38863 ft 543 kts 98°
2026-05-05 00:03 23.59888 46.06279 38869 ft 543 kts 98°
2026-05-05 00:04 23.59167 46.14478 38870 ft 543 kts 98°
2026-05-05 00:04 23.58443 46.22669 38881 ft 543 kts 98°
2026-05-05 00:05 23.57715 46.30848 38885 ft 542 kts 98°
2026-05-05 00:05 23.56982 46.39033 38890 ft 541 kts 98°
2026-05-05 00:06 23.56247 46.47196 38897 ft 540 kts 98°
2026-05-05 00:06 23.55509 46.55339 38893 ft 540 kts 98°
2026-05-05 00:07 23.54766 46.63476 38902 ft 539 kts 98°
2026-05-05 00:07 23.54023 46.71593 38888 ft 538 kts 98°
2026-05-05 00:08 23.53275 46.79707 38880 ft 538 kts 98°
2026-05-05 00:08 23.52524 46.87817 38875 ft 537 kts 98°
2026-05-05 00:09 23.51770 46.95911 38872 ft 537 kts 98°
2026-05-05 00:09 23.51016 47.03958 38851 ft 538 kts 98°
2026-05-05 00:10 23.50250 47.12087 38851 ft 539 kts 98°
2026-05-05 00:10 23.49480 47.20208 38858 ft 539 kts 98°
2026-05-05 00:11 23.48706 47.28338 38849 ft 540 kts 98°
2026-05-05 00:11 23.47926 47.36481 38856 ft 541 kts 98°
2026-05-05 00:12 23.47140 47.44632 38848 ft 541 kts 98°
2026-05-05 00:12 23.46349 47.52802 38845 ft 542 kts 98°
2026-05-05 00:13 23.45554 47.60967 38852 ft 542 kts 98°
2026-05-05 00:13 23.44754 47.69141 38829 ft 543 kts 98°
2026-05-05 00:14 23.43955 47.77258 38841 ft 542 kts 98°
2026-05-05 00:14 23.43147 47.85428 38836 ft 543 kts 98°
2026-05-05 00:15 23.42334 47.93598 38822 ft 543 kts 98°
2026-05-05 00:15 23.41516 48.01777 38829 ft 542 kts 98°
2026-05-05 00:16 23.40694 48.09955 38809 ft 543 kts 98°
2026-05-05 00:16 23.39868 48.18125 38805 ft 544 kts 98°
2026-05-05 00:17 23.39036 48.26301 38814 ft 543 kts 99°
2026-05-05 00:17 23.38228 48.34418 38807 ft 543 kts 96°
2026-05-05 00:18 23.37896 48.42640 38808 ft 543 kts 94°
2026-05-05 00:18 23.37569 48.50851 38806 ft 543 kts 95°
2026-05-05 00:19 23.37234 48.59041 38795 ft 543 kts 95°
2026-05-05 00:19 23.36894 48.67262 38795 ft 542 kts 95°
2026-05-05 00:20 23.36550 48.75460 38793 ft 542 kts 95°
2026-05-05 00:20 23.36203 48.83654 38795 ft 541 kts 95°
2026-05-05 00:21 23.35852 48.91831 38801 ft 541 kts 95°
2026-05-05 00:21 23.35497 48.99992 38795 ft 540 kts 95°
2026-05-05 00:22 23.34985 49.08146 38794 ft 538 kts 101°
2026-05-05 00:22 23.33822 49.16115 38786 ft 537 kts 102°
2026-05-05 00:23 23.32675 49.24141 38785 ft 536 kts 101°
2026-05-05 00:23 23.31526 49.32162 38786 ft 537 kts 102°
2026-05-05 00:24 23.30369 49.40177 38783 ft 537 kts 102°
2026-05-05 00:24 23.29203 49.48209 38791 ft 536 kts 102°
2026-05-05 00:25 23.28037 49.56215 38793 ft 536 kts 102°
2026-05-05 00:25 23.26867 49.64216 38789 ft 535 kts 102°
2026-05-05 00:26 23.25695 49.72204 38787 ft 535 kts 102°
2026-05-05 00:26 23.24518 49.80193 38776 ft 535 kts 102°
2026-05-05 00:27 23.23337 49.88185 38781 ft 535 kts 102°
2026-05-05 00:27 23.22152 49.96169 38783 ft 536 kts 102°
2026-05-05 00:28 23.20963 50.04161 38790 ft 535 kts 102°
2026-05-05 00:28 23.19769 50.12149 38787 ft 534 kts 102°
2026-05-05 00:29 23.18582 50.20068 38787 ft 534 kts 102°
2026-05-05 00:29 23.17375 50.28089 38784 ft 534 kts 102°
2026-05-05 00:30 23.16173 50.36050 38782 ft 534 kts 102°
2026-05-05 00:30 23.14974 50.43967 38782 ft 534 kts 102°
2026-05-05 00:31 23.13761 50.51942 38784 ft 535 kts 102°
2026-05-05 00:31 23.12546 50.59905 38790 ft 534 kts 102°
2026-05-05 00:32 23.11328 50.67862 38787 ft 534 kts 102°
2026-05-05 00:32 23.10107 50.75809 38782 ft 533 kts 102°
2026-05-05 00:33 23.08880 50.83766 38783 ft 533 kts 102°
2026-05-05 00:33 23.07653 50.91696 38777 ft 533 kts 102°
2026-05-05 00:34 23.06419 50.99651 38780 ft 533 kts 102°
2026-05-05 00:34 23.05192 51.07528 38774 ft 533 kts 102°
2026-05-05 00:35 23.03952 51.15460 38793 ft 532 kts 102°
2026-05-05 00:35 23.02710 51.23380 38787 ft 532 kts 102°
2026-05-05 00:36 23.01466 51.31287 38785 ft 531 kts 102°
2026-05-05 00:36 23.00220 51.39182 38779 ft 531 kts 102°
2026-05-05 00:37 22.98971 51.47068 38773 ft 530 kts 102°
2026-05-05 00:37 22.97716 51.54967 38772 ft 530 kts 102°
2026-05-05 00:38 22.96457 51.62864 38781 ft 530 kts 102°
2026-05-05 00:38 22.95195 51.70752 38780 ft 531 kts 102°
2026-05-05 00:39 22.93938 51.78587 38781 ft 531 kts 102°
2026-05-05 00:39 22.92667 51.86478 38781 ft 531 kts 102°
2026-05-05 00:40 22.91383 51.94426 38783 ft 543 kts 102°
2026-05-05 00:40 22.90049 52.02641 38785 ft 560 kts 102°
2026-05-05 00:41 22.88721 52.10825 38784 ft 548 kts 102°
2026-05-05 00:41 22.87389 52.18991 38785 ft 550 kts 102°
2026-05-05 00:42 22.86054 52.27145 38785 ft 546 kts 102°
2026-05-05 00:42 22.84726 52.35232 38784 ft 546 kts 102°
2026-05-05 00:43 22.83392 52.43338 38784 ft 546 kts 102°
2026-05-05 00:43 22.82450 52.50109 38786 ft 548 kts 96°
2026-05-05 00:44 22.82217 52.58376 38782 ft 549 kts 93°
2026-05-05 00:44 22.82013 52.66651 38785 ft 549 kts 93°
2026-05-05 00:45 22.81796 52.74927 38788 ft 549 kts 93°
2026-05-05 00:45 22.81576 52.83143 38782 ft 549 kts 93°
2026-05-05 00:46 22.81312 52.92820 38782 ft 549 kts 93°
2026-05-05 00:46 22.81121 52.99689 38773 ft 549 kts 93°
2026-05-05 00:47 22.80888 53.07927 38781 ft 546 kts 93°
2026-05-05 00:47 22.80652 53.16158 38779 ft 546 kts 93°
2026-05-05 00:48 22.80411 53.24383 38779 ft 546 kts 93°
2026-05-05 00:48 22.80165 53.32621 38779 ft 547 kts 93°
2026-05-05 00:49 22.79916 53.40866 38779 ft 547 kts 93°
2026-05-05 00:49 22.79662 53.49115 38776 ft 547 kts 93°
2026-05-05 00:50 22.79404 53.57347 38775 ft 547 kts 93°
2026-05-05 00:50 22.79141 53.65583 38777 ft 547 kts 93°
2026-05-05 00:51 22.78876 53.73772 38785 ft 547 kts 93°
2026-05-05 00:51 22.78605 53.82006 38777 ft 547 kts 93°
2026-05-05 00:52 22.78331 53.90237 38774 ft 545 kts 93°
2026-05-05 00:52 22.78265 53.98437 38774 ft 544 kts 86°
2026-05-05 00:53 22.79444 54.06532 38775 ft 545 kts 77°
2026-05-05 00:53 22.81096 54.14544 38777 ft 544 kts 78°
2026-05-05 00:54 22.82718 54.22566 38776 ft 545 kts 78°
2026-05-05 00:54 22.84453 54.30543 38773 ft 543 kts 71°
2026-05-05 00:54 22.85961 54.34288 38775 ft 542 kts 59°
2026-05-05 00:55 22.88066 54.37674 38772 ft 540 kts 49°
2026-05-05 00:55 22.93500 54.43230 38785 ft 539 kts 38°
2026-05-05 00:56 22.99150 54.48550 38774 ft 542 kts 39°
2026-05-05 00:56 23.04693 54.54084 38774 ft 541 kts 41°
2026-05-05 00:57 23.10189 54.59679 38775 ft 541 kts 41°
2026-05-05 00:57 23.15674 54.65276 38774 ft 541 kts 41°
2026-05-05 00:58 23.21166 54.70883 38772 ft 541 kts 41°
2026-05-05 00:58 23.26647 54.76484 38771 ft 541 kts 41°
2026-05-05 00:59 23.32148 54.82111 38774 ft 544 kts 41°
2026-05-05 00:59 23.37665 54.87763 38774 ft 544 kts 41°
2026-05-05 01:00 23.43109 54.93353 38208 ft 532 kts 41°
2026-05-05 01:00 23.45811 54.96127 37230 ft 535 kts 40°
2026-05-05 01:00 23.48521 54.98910 36274 ft 537 kts 40°
2026-05-05 01:00 23.51225 55.01690 35365 ft 538 kts 40°
2026-05-05 01:01 23.53917 55.04459 34475 ft 538 kts 40°
2026-05-05 01:01 23.56666 55.07289 33590 ft 537 kts 40°
2026-05-05 01:01 23.59350 55.10052 32537 ft 537 kts 40°
2026-05-05 01:01 23.62054 55.12838 31774 ft 532 kts 41°
2026-05-05 01:02 23.64722 55.15589 31090 ft 526 kts 41°
2026-05-05 01:02 23.67371 55.18323 30344 ft 521 kts 41°
2026-05-05 01:02 23.69996 55.21032 29625 ft 516 kts 41°
2026-05-05 01:02 23.72590 55.23710 28805 ft 511 kts 41°
2026-05-05 01:03 23.75150 55.26355 28252 ft 502 kts 41°
2026-05-05 01:03 23.77657 55.28949 27697 ft 492 kts 41°
2026-05-05 01:03 23.80124 55.31500 27081 ft 485 kts 41°
2026-05-05 01:03 23.82561 55.34021 26471 ft 479 kts 41°
2026-05-05 01:04 23.84959 55.36504 25863 ft 472 kts 41°
2026-05-05 01:04 23.89690 55.41361 24616 ft 461 kts 38°
2026-05-05 01:04 23.92329 55.43314 23818 ft 458 kts 26°
2026-05-05 01:05 23.95271 55.44595 23141 ft 451 kts 13°
2026-05-05 01:05 23.98329 55.45197 22407 ft 443 kts
2026-05-05 01:05 24.01384 55.45564 21616 ft 440 kts
2026-05-05 01:05 24.04357 55.45927 21097 ft 431 kts
2026-05-05 01:06 24.07323 55.46341 20619 ft 421 kts
2026-05-05 01:06 24.10162 55.46777 20074 ft 415 kts
2026-05-05 01:06 24.12999 55.47236 19522 ft 409 kts
2026-05-05 01:06 24.15796 55.47700 18971 ft 404 kts
2026-05-05 01:07 24.18558 55.48161 18419 ft 400 kts
2026-05-05 01:07 24.21293 55.48618 18029 ft 391 kts
2026-05-05 01:07 24.23950 55.49063 17634 ft 382 kts
2026-05-05 01:07 24.26548 55.49497 17225 ft 374 kts
2026-05-05 01:08 24.29100 55.49923 16824 ft 369 kts
2026-05-05 01:08 24.31699 55.50353 16428 ft 385 kts
2026-05-05 01:08 24.34376 55.50796 16065 ft 390 kts
2026-05-05 01:08 24.37053 55.51243 15702 ft 388 kts
2026-05-05 01:09 24.39713 55.51689 15342 ft 385 kts
2026-05-05 01:09 24.42352 55.52132 14992 ft 382 kts
2026-05-05 01:09 24.44976 55.52571 14645 ft 380 kts
2026-05-05 01:09 24.47581 55.53008 14300 ft 376 kts
2026-05-05 01:10 24.50128 55.53436 13941 ft 366 kts
2026-05-05 01:10 24.52610 55.53853 13576 ft 357 kts
2026-05-05 01:10 24.55003 55.54255 13179 ft 349 kts
2026-05-05 01:10 24.57385 55.54653 12783 ft 342 kts
2026-05-05 01:11 24.59747 55.55049 12334 ft 334 kts
2026-05-05 01:11 24.61978 55.55423 11945 ft 323 kts
2026-05-05 01:11 24.64164 55.55789 11572 ft 313 kts
2026-05-05 01:11 24.66286 55.56144 11187 ft 304 kts
2026-05-05 01:12 24.68351 55.56490 10807 ft 295 kts
2026-05-05 01:12 24.70353 55.56825 10425 ft 287 kts
2026-05-05 01:12 24.72306 55.57152 10054 ft 279 kts
2026-05-05 01:12 24.74202 55.57470 9702 ft 272 kts
2026-05-05 01:13 24.76054 55.57781 9301 ft 265 kts
2026-05-05 01:13 24.77859 55.58084 8905 ft 259 kts
2026-05-05 01:13 24.79625 55.58381 8568 ft 255 kts
2026-05-05 01:13 24.81391 55.58676 8172 ft 257 kts
2026-05-05 01:14 24.83166 55.58975 7783 ft 259 kts
2026-05-05 01:14 24.84950 55.59276 7414 ft 260 kts
2026-05-05 01:14 24.86732 55.59577 7108 ft 258 kts
2026-05-05 01:14 24.88493 55.59875 6817 ft 256 kts
2026-05-05 01:15 24.90222 55.60166 6553 ft 253 kts
2026-05-05 01:15 24.91950 55.60457 6273 ft 250 kts
2026-05-05 01:15 24.93664 55.60746 5984 ft 248 kts
2026-05-05 01:15 24.95366 55.61034 5697 ft 246 kts
2026-05-05 01:16 24.97052 55.61318 5404 ft 244 kts
2026-05-05 01:16 24.98728 55.61602 5133 ft 242 kts
2026-05-05 01:16 25.00379 55.61880 4901 ft 239 kts
2026-05-05 01:16 25.02015 55.62156 4653 ft 236 kts
2026-05-05 01:17 25.03632 55.62428 4409 ft 234 kts
2026-05-05 01:17 25.05235 55.62699 4181 ft 234 kts
2026-05-05 01:17 25.06840 55.62970 3946 ft 233 kts
2026-05-05 01:17 25.08436 55.63197 3695 ft 233 kts
2026-05-05 01:18 25.09986 55.62734 3453 ft 235 kts 329°
2026-05-05 01:18 25.11196 55.61540 3356 ft 234 kts 311°
2026-05-05 01:18 25.12158 55.60086 3353 ft 236 kts 305°
2026-05-05 01:18 25.13031 55.58557 3352 ft 236 kts 303°
2026-05-05 01:19 25.13884 55.57023 3348 ft 229 kts 303°
2026-05-05 01:19 25.14700 55.55553 3220 ft 222 kts 303°
2026-05-05 01:19 25.15500 55.54110 2934 ft 220 kts 303°
2026-05-05 01:19 25.16300 55.52667 2630 ft 219 kts 303°
2026-05-05 01:20 25.17082 55.51252 2352 ft 211 kts 303°
2026-05-05 01:20 25.17804 55.49948 2102 ft 189 kts 302°
2026-05-05 01:20 25.18440 55.48798 1881 ft 163 kts 303°
2026-05-05 01:20 25.18997 55.47786 1680 ft 148 kts 302°
2026-05-05 01:21 25.19532 55.46819 1491 ft 147 kts 302°
2026-05-05 01:21 25.20061 55.45864 1300 ft 146 kts 302°
2026-05-05 01:21 25.20590 55.44909 1114 ft 145 kts 302°
2026-05-05 01:21 25.21113 55.43961 945 ft 144 kts 301°
2026-05-05 01:22 25.21632 55.43018 758 ft 144 kts 301°
2026-05-05 01:22 25.22153 55.42084 566 ft 143 kts 300°
2026-05-05 01:22 25.22675 55.41152 379 ft 142 kts 299°
2026-05-05 01:22 25.23188 55.40223 198 ft 141 kts 300°
2026-05-05 01:23 25.23698 55.39295 37 ft 139 kts 300°
2026-05-05 01:23 25.24125 55.38522 31 ft 97 kts 301°
2026-05-05 01:23 25.24424 55.37986 30 ft 70 kts 301°
2026-05-05 01:23 25.24631 55.37619 28 ft 35 kts 305°
2026-05-05 01:24 25.24734 55.37419 27 ft 27 kts 293°
2026-05-05 01:24 25.24780 55.37230 29 ft 24 kts 275°
2026-05-05 01:24 25.24785 55.37127 28 ft 13 kts 272°
2026-05-05 01:24 25.24787 55.37048 27 ft 4 kts 272°
2026-05-05 01:25 25.24791 55.36993 27 ft 10 kts 279°
2026-05-05 01:25 25.24824 55.36911 27 ft 14 kts 295°
2026-05-05 01:25 25.24859 55.36805 27 ft 17 kts 284°
2026-05-05 01:25 25.24889 55.36681 26 ft 14 kts 291°
2026-05-05 01:26 25.24930 55.36597 26 ft 11 kts 301°
2026-05-05 01:26 25.24980 55.36508 26 ft 16 kts 301°
2026-05-05 01:26 25.25032 55.36414 26 ft 9 kts 302°
2026-05-05 01:26 25.25064 55.36360 26 ft 6 kts 302°
2026-05-05 01:27 25.25076 55.36338 26 ft 7 kts 302°
2026-05-05 01:27 25.25101 55.36295 26 ft 0 kts 301°
2026-05-05 01:27 25.25102 55.36294 26 ft 0 kts 301°
2026-05-05 01:27 25.25109 55.36276 26 ft 5 kts 283°
2026-05-05 01:28 25.25099 55.36242 26 ft 6 kts 218°
2026-05-05 01:28 25.25052 55.36206 26 ft 10 kts 212°
2026-05-05 01:28 25.25011 55.36178 31 ft 8 kts 211°
2026-05-05 01:28 25.24987 55.36162 29 ft 4 kts 211°
2026-05-05 01:29 25.24972 55.36152 27 ft 2 kts 211°
2026-05-05 01:29 25.24969 55.36150 28 ft 0 kts 211°